Dewpoint
65 70 72 73 72 72 71 71 71 72 72 72 72 72 72 71 72 72 72 72 72 71 70 70 70 69 70 70 70 71 71 72 72 71 71 70 70 70 70 70 70 69 70
66 71 72 73 72 72 72 71 71 72 72 72 72 72 72 72 72 72 72 72 72 71 70 71 70 70 69 70 70 71 71 71 71 71 71 70 70 69 70 70 70 70 70
67 71 72 72 72 72 72 72 72 72 72 72 72 72 72 71 71 72 72 72 72 71 70 70 70 70 70 70 71 71 71 71 70 70 70 68 69 69 70 70 70 70 69
69 71 72 72 72 72 72 72 72 73 73 72 72 71 71 71 71 71 72 72 72 71 70 70 70 70 69 70 69 69 69 69 68 68 66 67 66 69 69 69 69 69 69
69 71 72 72 72 72 72 72 72 72 72 72 72 71 71 71 71 71 72 72 72 70 70 70 70 69 69 68 68 68 67 67 66 65 65 66 66 67 69 69 69 69 69
69 71 71 71 71 72 72 72 72 72 71 71 71 72 71 71 70 71 71 72 71 70 70 69 69 68 68 67 67 67 66 66 66 64 66 66 66 68 68 69 70 69 70
68 70 71 70 71 72 72 72 72 71 71 71 71 71 71 71 71 71 70 71 72 71 70 69 68 68 67 67 67 66 66 66 65 64 65 67 66 69 67 68 69 70 70
68 70 71 71 71 71 71 71 71 71 71 71 71 71 71 71 70 70 71 70 70 69 69 68 67 66 66 67 67 66 66 67 66 65 65 66 67 69 68 69 70 70 70
68 69 70 70 71 70 70 70 70 70 70 70 70 70 70 70 69 70 71 70 70 69 68 67 67 67 68 67 67 66 66 67 66 65 65 65 67 69 69 68 68 69 69
67 67 68 69 71 70 70 69 69 69 69 70 70 70 69 69 69 70 70 70 70 69 68 68 68 67 67 67 66 65 65 67 66 65 65 65 65 67 68 69 67 68 69
65 66 67 68 69 70 70 70 70 70 70 69 69 69 67 67 68 69 69 69 69 69 68 67 66 65 65 65 65 65 66 66 66 66 66 66 64 67 67 69 68 68 69
63 65 66 67 67 69 70 69 68 69 69 68 68 68 67 66 67 68 68 68 68 67 67 65 64 63 63 64 65 66 66 65 66 65 65 65 66 68 67 66 64 64 67
63 64 66 66 66 67 68 69 69 68 68 68 67 67 66 66 66 67 67 65 63 64 63 63 62 61 63 64 64 64 64 64 65 64 64 64 65 68 65 65 64 65 67
67 65 66 66 66 66 67 67 68 68 67 67 66 66 65 65 65 65 64 62 61 60 60 60 60 61 63 64 64 63 63 63 62 63 63 63 65 67 67 66 66 66 65
67 67 66 66 66 66 66 65 66 66 67 66 66 66 66 65 63 62 60 60 59 60 60 59 62 63 63 62 62 61 60 60 60 61 61 62 65 67 66 65 66 66 65
67 67 66 66 66 67 66 65 66 66 65 65 66 66 66 63 61 60 60 60 58 58 58 59 61 63 61 60 59 59 58 58 58 58 59 60 61 65 66 66 66 65 65
66 67 67 66 67 67 66 65 66 66 65 65 64 64 63 62 60 59 58 57 57 56 56 58 60 61 59 58 57 57 57 57 56 56 57 58 59 60 62 64 64 63 62
66 67 67 67 67 65 65 65 64 63 63 62 62 62 62 60 59 58 58 57 57 56 57 59 60 58 57 56 55 54 55 55 56 56 56 56 56 57 58 61 61 60 60
65 67 67 65 64 63 62 62 61 62 62 62 62 62 61 60 60 59 58 57 56 56 56 58 58 57 55 53 52 51 51 53 54 54 55 55 55 55 56 57 58 59 59
64 65 65 64 63 63 62 62 62 62 61 61 61 60 60 60 59 58 56 55 55 55 55 56 55 54 54 52 50 49 49 50 51 51 52 53 53 54 53 54 54 54 57
63 64 63 63 62 62 62 61 61 61 61 60 59 58 58 59 58 56 55 54 54 54 54 54 52 50 50 49 49 50 49 49 48 48 49 51 51 52 51 52 52 51 52
63 62 62 62 62 62 62 59 60 61 59 58 57 56 56 55 55 54 53 52 53 53 53 53 53 51 50 49 48 47 46 47 47 46 48 49 49 51 50 51 50 50 51
62 62 61 61 61 60 59 60 58 57 56 54 54 53 53 53 53 52 51 51 51 52 51 51 51 51 51 50 50 49 45 45 45 44 44 45 46 49 47 47 50 49 49
61 62 61 61 60 59 60 60 59 58 55 52 52 52 52 52 51 51 51 50 50 50 49 49 50 49 49 48 49 52 54 50 49 44 42 43 43 45 47 47 47 47 47
61 61 61 61 61 60 60 60 59 55 54 53 52 51 51 50 50 50 50 49 49 49 49 49 47 47 47 47 46 45 45 47 48 49 46 42 42 43 45 46 45 45 44
60 60 60 61 61 61 60 60 57 56 54 53 50 50 50 50 49 50 50 50 49 49 49 47 46 46 46 45 45 44 44 43 44 45 43 41 40 41 41 43 44 43 43
Lifted_Index
0 -2 -3 -3 -3 -3 -3 -3 -3 -3 -4 -4 -4 -5 -5 -5 -5 -5 -6 -6 -5 -5 -5 -5 -4 -4 -4 -4 -5 -5 -5 -5 -5 -5 -5 -5 -5 -5 -4 -4 -4 -5 -5
-0 -2 -3 -3 -3 -3 -3 -3 -3 -4 -4 -4 -4 -5 -5 -5 -5 -5 -6 -6 -6 -5 -5 -5 -5 -4 -4 -4 -5 -5 -5 -5 -5 -5 -5 -5 -5 -5 -5 -5 -5 -5 -5
-1 -2 -3 -4 -3 -3 -3 -3 -4 -4 -4 -4 -4 -4 -5 -5 -5 -6 -6 -6 -6 -6 -5 -5 -5 -5 -4 -4 -5 -5 -5 -4 -4 -4 -4 -5 -5 -5 -5 -5 -5 -5 -5
-1 -2 -3 -4 -4 -4 -4 -4 -4 -4 -4 -4 -4 -4 -5 -5 -5 -5 -6 -6 -6 -6 -6 -6 -5 -5 -4 -4 -4 -4 -4 -4 -3 -3 -4 -4 -5 -5 -5 -5 -5 -5 -5
-1 -2 -3 -4 -4 -4 -4 -4 -4 -4 -4 -4 -4 -4 -4 -5 -5 -5 -6 -6 -6 -6 -6 -6 -5 -5 -4 -4 -3 -3 -3 -3 -3 -3 -3 -4 -4 -5 -5 -5 -5 -5 -5
-1 -2 -3 -4 -4 -4 -4 -4 -4 -4 -4 -4 -4 -4 -4 -4 -4 -5 -5 -6 -6 -6 -6 -5 -5 -4 -4 -4 -3 -3 -3 -3 -3 -3 -3 -4 -4 -5 -5 -5 -5 -5 -5
-1 -2 -3 -3 -4 -4 -4 -4 -4 -4 -4 -4 -4 -4 -4 -4 -4 -4 -5 -5 -6 -5 -5 -4 -4 -4 -3 -3 -3 -3 -3 -3 -3 -3 -3 -4 -4 -5 -5 -5 -5 -5 -5
-1 -2 -2 -3 -3 -4 -4 -4 -4 -4 -4 -4 -4 -4 -4 -4 -4 -4 -5 -5 -5 -4 -4 -3 -3 -3 -3 -3 -3 -3 -3 -3 -3 -3 -3 -4 -4 -5 -5 -5 -5 -5 -5
-1 -1 -2 -3 -3 -3 -3 -3 -4 -3 -3 -4 -3 -3 -3 -3 -3 -4 -5 -5 -4 -4 -3 -3 -2 -2 -3 -3 -3 -3 -3 -4 -4 -3 -3 -3 -4 -5 -5 -5 -5 -5 -5
-0 -1 -1 -2 -3 -3 -3 -3 -3 -3 -3 -3 -3 -3 -3 -3 -3 -4 -4 -5 -5 -4 -3 -3 -3 -2 -2 -2 -2 -2 -2 -3 -4 -4 -3 -3 -3 -4 -5 -5 -4 -4 -5
-0 -0 -1 -2 -2 -3 -3 -3 -3 -3 -3 -3 -3 -2 -2 -2 -2 -3 -4 -5 -5 -4 -4 -3 -2 -1 -1 -0 -0 -1 -1 -3 -3 -4 -4 -3 -3 -4 -5 -4 -4 -3 -4
-1 -1 -1 -2 -2 -2 -3 -3 -3 -3 -3 -3 -2 -2 -1 -2 -2 -3 -4 -4 -4 -4 -4 -3 -2 -0 1 1 0 -0 -1 -2 -2 -3 -3 -3 -3 -4 -4 -3 -2 -2 -2
-1 -2 -2 -2 -2 -2 -2 -3 -3 -3 -3 -2 -2 -1 -1 -2 -2 -3 -4 -4 -4 -4 -3 -2 -1 0 1 1 1 1 0 -0 -1 -1 -2 -2 -3 -3 -3 -3 -2 -1 -2
-2 -2 -2 -2 -1 -1 -1 -2 -2 -2 -2 -2 -1 -1 -1 -2 -2 -3 -4 -4 -4 -3 -2 -1 -0 0 1 1 1 1 1 1 1 0 -0 -1 -2 -3 -3 -3 -2 -2 -1
-3 -2 -2 -2 -1 -0 -0 -1 -1 -2 -2 -1 -1 -1 -2 -2 -3 -3 -3 -3 -3 -2 -1 -0 0 0 0 0 1 1 1 1 1 1 0 -1 -2 -3 -4 -3 -3 -2 -1
-3 -3 -3 -2 -1 -0 0 -0 -1 -1 -1 -1 -1 -2 -2 -3 -3 -3 -3 -3 -2 -1 0 1 1 0 0 0 1 1 1 1 1 1 0 -1 -2 -3 -3 -3 -2 -1 -1
-3 -3 -3 -2 -2 -1 -1 -1 -1 -1 -1 -1 -2 -2 -3 -3 -3 -3 -3 -2 -1 -0 1 2 1 1 0 0 0 1 1 1 1 1 0 -0 -1 -2 -2 -2 -1 -0 -0
-3 -3 -3 -2 -2 -2 -2 -2 -2 -2 -2 -2 -3 -3 -4 -4 -3 -3 -2 -1 -0 1 2 2 1 1 0 0 0 1 1 1 1 1 1 1 0 -0 -0 -0 0 0 1
-2 -3 -3 -3 -3 -2 -3 -3 -3 -3 -3 -3 -4 -4 -4 -3 -3 -2 -1 -0 1 2 2 1 1 0 0 0 0 1 2 2 2 2 2 2 1 1 1 1 1 1 1
-2 -2 -3 -3 -3 -3 -3 -3 -3 -3 -4 -4 -4 -4 -3 -3 -3 -2 -0 1 2 2 2 1 1 1 0 0 0 1 2 2 2 2 2 2 2 2 2 2 3 2 2
-2 -2 -3 -3 -3 -3 -3 -3 -3 -3 -3 -3 -3 -3 -3 -2 -2 -1 1 2 3 3 2 2 2 1 1 1 1 1 2 2 2 2 3 3 2 2 3 3 3 3 3
-1 -2 -3 -3 -3 -3 -3 -3 -3 -3 -3 -3 -2 -2 -2 -2 -1 1 2 2 3 3 3 2 2 2 2 1 1 1 1 2 2 2 3 3 3 3 3 3 4 4 4
-1 -2 -2 -3 -3 -3 -3 -3 -3 -3 -3 -2 -2 -2 -2 -1 0 1 2 2 3 3 3 3 3 2 2 2 1 1 1 1 2 2 3 3 3 3 3 3 3 4 4
-1 -2 -2 -3 -3 -4 -4 -3 -3 -3 -2 -2 -2 -2 -1 -0 1 2 2 3 3 3 3 4 4 3 3 3 3 2 2 2 2 3 3 3 3 3 3 3 3 3 4
-2 -2 -3 -3 -3 -4 -4 -4 -3 -3 -2 -2 -2 -2 -1 0 1 2 3 3 3 4 4 4 5 5 5 5 4 4 3 3 3 3 3 4 4 4 4 4 3 4 4
-2 -3 -3 -3 -3 -4 -4 -3 -3 -2 -2 -2 -2 -2 -1 1 2 2 3 3 4 4 4 5 6 6 6 6 6 5 5 5 4 4 4 4 4 5 4 4 4 4 4